Location: ???
(60.6398°N, 46.9067°E)
Time: 18:30:11
(UTC+00:00)

COSMOS 2455 - Pass Details

Date: 08 December 2019
Orbit: 903 x 907 km, 67.1° (Epoch: 17 January)

Event Time Altitude Azimuth Distance (km) Brightness Sun altitude
Rises 14:10:06 0° 236° (SW) 3,529 7.5 -15.6°
Reaches altitude 10° 14:12:36 10° 238° (WSW) 2,591 6.5 -15.9°
Maximum altitude 14:18:38 79° 325° (NW) 932 2.9 -16.6°
Enters shadow 14:22:26 24° 50° (NE) 1,789 3.9 -17.1°
